DW3589 Arcos (Cadiz) ES current weather conditions

sailwx.info

Wind from 117

Air temperature 7.8° C
Dewpoint 6.6° C

Last reported at 2018-Jan-20 23:05 UTC.
Time now 2018-Jan-20 23:19 UTC

Location: N 36°46' W 005°47'.
View on Google Maps.

See reports from other nearby stations

  
Tides and Currents Weather Stations Pressure Air Temp Water Temp Dewpoint Dewpoint Depression Visibility Wind Speed Wind Dir Waves Ship Positions
date/time (UTC)wind fromknots sea level pressurealtimeterstation pressurevisibilityair tempwater tempwave heightnotes
2018-Jan-20 23:05 117 7.8
2018-Jan-20 22:35 117 8.3
2018-Jan-20 22:05 120 8.3
2018-Jan-20 21:35 211 15.6
2018-Jan-20 21:05 123 15.6
2018-Jan-20 20:35 127 15.6
2018-Jan-20 20:05 116 15.6
2018-Jan-20 19:35 106 0 gusting 2 15.6
2018-Jan-20 19:05 110 15.6
2018-Jan-20 18:35 127 15.6
2018-Jan-20 18:05 099 15.6
2018-Jan-20 17:35 256 15.6
2018-Jan-20 17:05 252 16.7
2018-Jan-20 16:35 259 16.7
2018-Jan-20 16:05 259 17.2
2018-Jan-20 15:35 290 17.8
2018-Jan-20 15:05 308 17.8
2018-Jan-20 14:35 265 1 gusting 3 17.2
2018-Jan-20 14:05 290 16.7
2018-Jan-20 13:35 319 16.1
2018-Jan-20 13:05 259 15.6
2018-Jan-20 12:35 251 15.0
2018-Jan-20 12:05 271 14.4
2018-Jan-20 11:35 240 13.9
2018-Jan-20 11:05 243 12.8
2018-Jan-20 10:35 233 10.6
2018-Jan-20 10:05 318 9.4
2018-Jan-20 09:35 142 8.9
2018-Jan-20 09:05 142 12.2
2018-Jan-20 08:35 142 12.2
2018-Jan-20 08:05 142 12.2
2018-Jan-20 07:35 152 12.2
2018-Jan-20 07:05 015 12.2
2018-Jan-20 06:35 098 12.2
2018-Jan-20 06:05 098 12.2
2018-Jan-20 05:35 097 12.2
2018-Jan-20 05:05 098 12.2
2018-Jan-20 04:35 115 12.2
2018-Jan-20 04:05 116 12.2
2018-Jan-20 03:35 116 12.2
2018-Jan-20 03:05 117 1 gusting 1 12.2
2018-Jan-20 02:35 117 12.2
2018-Jan-20 02:05 117 12.2
2018-Jan-20 01:35 117 12.2
2018-Jan-20 01:05 117 12.2
2018-Jan-20 00:35 117 12.2
2018-Jan-20 00:05 117 12.2
2018-Jan-19 23:35 117 12.2
2018-Jan-19 23:05 117 12.2
2018-Jan-19 22:35 115 12.2
2018-Jan-19 22:05 116 12.2
2018-Jan-19 21:35 115 12.2
2018-Jan-19 21:05 115 12.2
2018-Jan-19 20:35 115 12.2
2018-Jan-19 20:05 116 0 gusting 3 12.2
2018-Jan-19 19:35 110 12.2
2018-Jan-19 19:05 110 1 gusting 3 12.2
2018-Jan-19 18:35 122 12.2
2018-Jan-19 18:05 127 13.3
2018-Jan-19 17:35 225 16.1
2018-Jan-19 17:05 314 16.7
2018-Jan-19 16:35 221 17.2
2018-Jan-19 16:05 280 17.2
2018-Jan-19 15:35 288 17.2
2018-Jan-19 15:05 293 17.2
2018-Jan-19 14:35 240 2 gusting 4 17.2
2018-Jan-19 14:05 252 1 gusting 8 17.2
2018-Jan-19 13:35 284 2 gusting 6 17.2
2018-Jan-19 13:05 277 1 gusting 4 16.7
2018-Jan-19 12:35 238 16.7
2018-Jan-19 12:05 236 1 gusting 4 16.1
2018-Jan-19 11:35 200 15.0
2018-Jan-19 11:05 120 13.3
2018-Jan-19 10:35 105 11.7
2018-Jan-19 10:05 203 10.6
2018-Jan-19 09:35 203 9.4
2018-Jan-19 09:05 203 8.9
2018-Jan-19 08:35 203 8.9
2018-Jan-19 08:05 122 11.7
2018-Jan-19 07:35 131 11.7
2018-Jan-19 07:05 131 11.7
2018-Jan-19 06:35 356 11.7
2018-Jan-19 06:05 138 11.7
2018-Jan-19 05:35 110 11.7
2018-Jan-19 05:05 248 11.7
2018-Jan-19 04:35 359 11.7
2018-Jan-19 04:05 114 11.7
2018-Jan-19 03:35 116 0 gusting 0 11.7
2018-Jan-19 03:05 198 11.7
2018-Jan-19 02:35 110 11.7
2018-Jan-19 02:05 111 11.7
2018-Jan-19 01:35 111 11.7
2018-Jan-19 01:05 111 11.7
2018-Jan-19 00:35 110 11.7
2018-Jan-18 23:35 108 1 gusting 2 11.7